Home   Weather   Pago Pago   Past weeks
Flag for American Samoa

Past Weather in Pago Pago, American Samoa — Yesterday and Last 2 Weeks

Now
82 °F

Passing clouds.


Feels Like: 89 °F
Forecast: 87 / 81 °F
Wind: 2 mph from North

Location: Pago Pago / Int. Airp.

Current Time: Jan 17, 2019 at 12:02:07 am

Latest Report: Jan 16, 2019 at 10:52 pm


Visibility: 10 mi

Pressure: 29.82 "Hg

Humidity: 85%

Dew Point: 77 °F

Location of Pago PagoLocation

Past Weather in Pago Pago — Graph

°F

Pago Pago Temperature Yesterday

Maximum temperature yesterday: 90 °F (at 2:50 pm)
Minimum temperature yesterday: 82 °F (at 10:52 pm)
Average temperature yesterday: 85 °F

High & Low Weather Summary for the Past Weeks

 TemperatureHumidityPressure
High90 °F (Jan 4, 12:50 pm)94% (Jan 2, 8:50 pm)29.88 "Hg (Jan 2, 8:50 pm)
Low75 °F (Jan 3, 4:50 am)49% (Jan 9, 2:50 am)29.61 "Hg (Jan 12, 4:02 pm)
Average84 °F81%29.74 "Hg
* Reported Jan 1 10:50 pm — Jan 16 10:52 pm, Pago Pago. Weather by CustomWeather, © 2019

Note: Actual official high and low records may vary slightly from our data, if they occured in-between our weather recording intervals... More about our weather records

Advertising

Pago Pago Weather History for the Previous 24 Hours

Scroll right to see more
 ConditionsComfort  
Time TempWeatherWind HumidityBarometerVisibility
10:52 pm
Wed, Jan 16
82 °FPassing clouds.2 mph85%29.82 "Hg10 mi
8:50 pm84 °FPassing clouds.No wind79%29.78 "Hg10 mi
7:50 pm84 °FPassing clouds.2 mph77%29.77 "Hg10 mi
6:50 pm84 °FScattered clouds.3 mph79%29.74 "Hg12 mi
5:50 pm86 °FScattered clouds.5 mph70%29.72 "Hg12 mi
4:50 pm88 °FScattered clouds.5 mph66%29.72 "Hg12 mi
3:50 pm88 °FScattered clouds.6 mph70%29.72 "Hg12 mi
2:50 pm90 °FBroken clouds.7 mph67%29.73 "Hg12 mi
1:50 pm89 °FPartly sunny.7 mph69%29.75 "Hg12 mi
12:50 pm86 °FPartly sunny.No wind76%29.77 "Hg12 mi
11:50 am88 °FPartly sunny.2 mph70%29.80 "Hg12 mi
10:50 am88 °FBroken clouds.6 mph75%29.80 "Hg12 mi
9:50 am86 °FBroken clouds.7 mph75%29.80 "Hg12 mi
8:52 am85 °FBroken clouds.2 mph79%29.80 "Hg12 mi
7:52 am83 °FSprinkles. Broken clouds.3 mph83%29.80 "Hg12 mi
6:50 am83 °FSprinkles. Broken clouds.5 mph83%29.78 "Hg12 mi
5:50 am82 °FPartly cloudy.6 mph82%29.75 "Hg12 mi
4:50 am83 °FPartly cloudy.5 mph81%29.73 "Hg10 mi
3:50 am83 °FPartly cloudy.7 mph81%29.73 "Hg10 mi
1:50 am82 °FOvercast.6 mph82%29.75 "Hg10 mi
Weather by CustomWeather, © 2019

See weather overview